GFSNE_con_3kmhel_072.txt.gz
Helicity
26 46 69 80 111 152 201 214 162 158 175 138 184 178 268 196 298 205 212 290 239 259 230 173 194 177 160 158 161 147 129 123 112 104 99 97 101 110
60 77 69 109 147 163 165 173 195 212 207 198 232 250 195 305 293 253 218 246 201 222 214 205 162 152 145 139 135 128 123 115 114 113 115 119 129 132
90 123 124 125 212 240 228 138 233 273 288 317 363 319 347 233 252 244 244 198 196 188 208 182 156 159 146 142 137 126 113 114 118 124 129 148 178 189
113 144 153 179 157 202 219 172 323 289 341 382 407 322 267 242 315 257 202 194 215 267 213 175 162 150 137 135 126 108 103 106 117 126 132 149 173 202
154 133 126 139 169 237 195 288 319 326 350 372 344 341 348 342 283 229 180 225 206 226 160 128 123 132 130 137 115 106 107 111 120 131 144 161 182 182
247 267 241 222 244 227 287 297 346 363 290 348 320 358 311 275 260 237 208 214 227 183 177 147 157 138 129 118 116 95 73 69 92 128 145 158 158 147
275 266 234 280 250 269 310 325 350 402 462 346 332 363 316 297 241 239 255 245 204 164 186 179 182 190 158 122 89 50 95 107 99 127 162 171 144 122
284 288 274 263 281 318 373 451 463 492 414 410 362 347 288 338 286 266 273 261 274 197 226 228 198 199 141 128 109 116 98 99 126 153 159 154 122 109
329 397 435 462 538 604 702 705 681 572 435 371 368 371 350 314 281 273 259 270 269 208 237 234 175 145 121 115 104 100 89 98 134 160 158 98 91 141
389 431 497 559 592 683 725 703 632 450 355 391 364 353 343 305 273 272 287 284 235 226 163 199 137 135 126 118 93 67 40 91 122 150 143 70 61 74
476 478 531 582 556 620 634 439 309 328 402 450 445 415 363 333 291 313 293 276 253 200 177 195 138 149 139 107 88 160 142 108 113 129 96 37 34 41
558 597 629 545 632 417 446 385 362 247 296 301 319 291 232 290 261 256 272 228 212 211 205 202 175 143 148 151 149 112 118 137 145 132 69 47 70 84
681 732 712 726 575 414 343 294 323 305 352 303 308 314 289 252 240 218 218 228 217 197 227 239 183 167 196 173 146 133 114 128 133 111 68 126 71 50
627 627 531 385 288 322 347 373 404 343 322 352 319 258 241 251 216 208 204 203 174 152 151 156 205 176 184 182 160 144 125 136 98 81 50 64 27 17
497 400 208 238 294 325 323 359 396 381 282 257 251 245 237 232 210 187 176 156 144 145 149 142 165 161 179 184 171 144 124 104 75 57 48 33 29 35
286 217 214 272 362 358 310 242 260 276 272 260 242 233 211 196 191 184 173 169 179 176 161 148 142 157 180 178 185 148 94 113 52 34 40 40 31 52
261 237 259 260 210 197 219 219 222 221 232 232 218 204 191 175 165 171 173 187 200 202 206 181 157 141 141 137 169 115 72 57 29 28 41 52 56 70
231 219 198 176 162 163 175 181 189 198 213 194 184 182 180 179 182 199 198 205 228 224 221 200 187 183 169 135 99 108 55 26 42 52 66 79 61 70
193 178 175 177 182 185 208 226 232 224 184 167 177 183 196 209 218 227 240 249 265 233 216 204 190 198 197 173 92 66 18 -3 43 78 90 77 62 52
214 214 227 226 227 227 224 216 198 192 191 207 219 231 235 234 260 265 276 285 276 268 241 179 172 194 208 164 72 13 -13 5 -28 60 64 67 61 108
201 219 224 226 222 209 210 202 209 213 224 212 227 228 235 252 256 264 271 252 233 212 216 196 154 119 92 82 71 5 -13 11 -17 34 58 49 43 47
217 216 210 202 197 201 203 206 207 212 214 213 229 226 217 218 226 234 230 227 217 196 168 134 102 95 100 81 41 -34 -13 28 29 25 130 101 71 71
209 202 197 200 196 189 184 185 174 183 181 186 186 181 188 196 190 184 175 165 149 132 110 92 81 77 67 58 21 -25 -6 36 47 77 58 61 95 96

GFSNE_con_3kmhel_078.txt.gz
Helicity
111 94 103 138 110 61 110 150 173 160 178 194 213 201 215 222 181 152 188 221 242 248 229 233 243 239 242 223 193 189 175 165 144 138 137 139 130 128
125 120 126 114 114 100 165 193 188 203 226 234 243 263 204 208 183 203 257 255 263 256 251 261 263 270 252 246 209 207 190 160 153 161 158 148 140 158
114 146 73 115 138 159 204 210 210 262 295 281 310 334 310 298 358 329 291 276 321 261 242 286 291 257 234 221 198 223 188 164 163 160 161 158 172 188
132 125 134 147 143 172 234 234 273 331 374 297 376 364 321 350 420 384 331 324 295 236 242 275 332 268 228 199 213 195 174 163 160 160 164 170 204 215
121 109 125 152 180 210 220 274 348 439 419 357 423 437 485 546 470 412 340 327 310 384 337 268 281 228 197 197 185 185 166 170 167 166 168 198 222 189
162 189 171 157 146 180 236 316 388 391 299 459 420 521 453 423 399 347 394 472 429 356 310 270 245 217 191 180 176 172 165 163 167 184 194 203 177 154
219 221 250 225 311 260 220 281 349 293 274 306 346 402 453 476 402 439 463 557 417 297 260 275 331 296 219 174 172 153 166 159 158 148 136 119 128 103
245 266 316 327 373 390 377 368 331 300 265 380 352 422 391 468 471 592 691 683 506 366 283 196 290 319 290 241 183 193 211 167 145 145 128 124 112 87
298 306 353 364 340 363 384 386 372 469 569 419 445 515 575 700 868 730 707 904 489 248 259 247 332 310 253 230 191 214 203 173 163 128 115 106 93 98
366 298 268 332 366 387 429 528 624 650 626 731 799 702 575 704 637 487 462 357 262 278 310 288 243 261 255 296 223 203 202 191 151 120 86 78 83 87
491 457 445 485 431 425 495 588 616 709 735 826 617 693 731 653 613 545 439 276 212 268 278 308 258 277 300 300 231 184 224 202 131 99 82 82 94 105
561 516 464 458 451 419 487 537 606 563 566 654 691 787 587 461 378 197 179 206 266 271 335 339 356 330 288 252 302 253 186 153 135 90 77 92 97 178
618 615 568 548 560 552 549 569 592 560 622 609 627 510 424 307 180 209 268 270 292 313 317 283 295 302 332 321 260 212 170 120 141 147 110 92 100 134
595 601 566 576 581 635 667 649 637 600 600 645 428 329 248 233 274 292 279 261 261 244 232 255 286 282 280 244 207 167 172 160 158 147 134 131 93 91
635 665 732 814 832 690 618 603 543 479 377 348 315 255 251 245 240 209 198 195 240 260 244 233 229 213 225 223 205 193 186 169 157 162 177 160 151 119
782 712 663 652 672 713 592 425 376 339 318 221 185 179 175 175 184 209 205 210 207 190 166 163 177 207 234 239 245 239 198 222 180 174 162 151 135 67
600 621 550 426 374 416 418 212 225 184 171 157 164 165 163 172 183 195 204 219 222 205 203 211 225 236 245 237 256 213 204 219 214 207 190 142 105 53
568 531 316 260 312 260 163 119 125 149 129 118 126 148 173 193 201 193 193 202 210 211 218 227 253 267 255 241 194 215 241 268 208 156 80 45 -32 -33
367 338 297 250 226 201 185 141 106 93 128 167 189 194 184 182 182 183 194 207 220 231 239 238 239 256 275 301 275 267 247 117 76 36 7 16 -45 -148
237 220 214 195 167 163 168 176 174 169 174 169 170 179 185 187 185 182 174 191 197 192 195 199 216 263 324 266 225 127 43 90 121 115 46 18 -14 -36
222 230 216 213 198 186 173 165 167 168 171 183 197 190 169 155 152 142 138 144 151 149 156 159 156 120 117 127 169 125 78 60 64 67 17 -45 -150 -81
185 187 182 186 189 187 182 188 202 209 192 168 146 137 123 104 100 98 100 95 98 104 104 93 87 97 103 113 103 61 37 30 43 38 29 1 -10 -30
216 180 182 199 207 210 201 187 166 153 140 129 120 111 100 101 89 82 83 81 75 74 71 69 56 44 47 53 43 28 15 44 74 115 123 111 148 102

GFSNE_con_3kmhel_084.txt.gz
Helicity
193 210 196 181 206 195 166 236 248 182 150 113 152 152 148 160 149 214 236 239 259 270 277 263 237 222 194 199 179 196 252 239 223 213 193 174 171 146
189 175 147 167 212 179 136 224 289 266 225 178 164 182 143 143 143 199 212 215 240 252 252 228 260 165 176 209 218 263 255 237 246 250 237 211 177 137
196 188 105 221 251 249 221 237 265 289 182 183 231 190 204 213 199 203 182 254 274 244 241 278 244 196 279 277 270 244 230 256 285 274 246 225 210 149
240 266 246 297 282 293 280 212 283 316 303 248 202 238 233 249 256 198 217 318 323 263 290 367 322 344 357 383 266 264 278 318 296 266 218 204 173 178
211 217 232 257 237 275 293 320 335 284 329 294 235 197 206 307 268 308 346 313 347 295 306 312 343 361 430 375 357 331 357 285 252 181 180 189 164 156
240 273 284 289 266 261 286 294 281 270 250 245 221 212 240 331 301 262 304 345 326 344 345 321 324 347 376 319 302 315 387 441 363 204 159 161 157 160
226 240 254 292 293 295 325 271 252 248 244 227 221 230 297 513 392 389 290 315 330 452 415 451 407 406 365 360 399 505 463 479 320 194 187 160 172 167
214 209 221 221 205 277 315 281 288 269 206 212 186 174 224 376 398 418 394 446 377 444 517 547 494 510 555 621 744 598 373 340 191 145 153 156 169 174
247 226 199 199 216 221 225 255 285 352 335 233 224 211 247 342 470 529 487 475 551 626 589 613 592 603 624 705 592 426 398 294 158 143 192 206 197 181
244 233 227 191 207 237 278 299 318 403 406 420 417 425 492 600 591 559 647 688 749 668 618 510 617 565 533 553 450 375 311 209 150 189 218 244 227 214
277 257 254 234 249 329 408 460 552 527 463 479 609 689 731 641 528 644 614 694 710 695 687 554 584 563 501 460 362 329 306 273 307 326 333 312 288 286
339 438 457 350 285 407 425 504 626 703 839 989 1002 1096 943 911 852 626 610 658 656 596 626 511 516 462 444 349 271 264 270 288 298 305 305 295 291 257
421 513 515 508 622 752 762 743 869 1034 1047 1052 1058 1153 1178 1139 1024 927 920 686 648 583 490 361 372 338 302 255 201 210 230 222 230 229 230 237 254 271
619 614 611 665 776 869 906 923 997 1018 1102 1146 1130 960 904 797 647 559 379 406 366 401 327 252 242 201 180 170 177 225 233 227 229 230 252 277 286 281
725 780 907 1059 1157 1176 1183 1201 1260 1128 1099 940 741 906 633 437 489 352 277 219 226 262 222 233 215 212 202 191 189 178 173 156 165 222 261 262 263 288
1128 1202 1257 1243 1170 1033 1131 1068 1194 907 722 605 515 397 318 302 279 231 206 184 175 197 197 209 229 221 221 245 252 238 224 226 231 235 226 220 216 243
647 588 521 794 583 778 563 512 365 359 315 282 258 261 221 213 195 158 146 139 160 187 218 234 250 244 234 242 236 268 286 263 250 238 243 244 239 237
483 484 397 367 429 430 419 406 332 284 266 235 208 167 148 135 141 164 165 169 175 197 214 209 202 195 224 245 268 246 216 199 186 185 195 228 214 178
348 370 311 267 272 269 250 229 217 197 173 166 166 168 169 180 175 175 188 187 197 191 187 185 189 188 214 209 144 147 173 154 164 174 169 196 191 144
260 254 246 212 194 175 181 166 172 184 186 182 193 191 186 183 193 185 166 146 139 147 169 165 163 184 164 132 140 111 74 120 152 154 140 120 101 43
195 216 214 202 198 170 145 135 135 139 140 149 157 153 131 122 131 137 143 159 158 186 178 173 138 123 93 82 110 82 74 42 50 86 83 96 97 91
177 176 164 158 152 135 126 118 130 137 129 131 131 137 137 137 149 154 155 163 165 152 138 120 99 88 91 69 52 51 65 75 66 22 15 36 93 140
156 155 164 166 162 157 147 157 158 155 147 132 129 142 163 165 147 144 159 145 133 129 112 91 73 56 46 38 34 51 55 73 89 60 68 66 18 22

GFSNE_con_3kmhel_087.txt.gz
Helicity
34 81 217 269 290 249 247 233 202 170 148 176 191 182 199 180 154 167 141 86 131 158 186 211 227 232 232 222 211 188 192 150 137 199 132 151 212 211
169 160 164 232 240 221 257 236 245 235 195 170 148 187 229 257 186 193 181 147 126 150 166 196 235 258 245 260 258 244 224 133 197 187 217 306 272 232
111 156 220 271 244 237 228 246 208 268 232 115 171 206 213 218 226 229 208 201 194 208 190 220 221 276 242 231 274 278 154 166 198 242 308 261 224 220
150 155 147 271 258 318 353 249 188 199 267 206 253 265 294 274 268 243 278 289 280 249 211 216 251 250 229 237 228 226 282 330 368 361 332 331 268 304
189 202 222 241 205 221 263 275 295 324 326 322 238 274 289 296 291 288 281 238 243 222 224 244 245 239 211 262 284 384 306 414 393 390 366 381 356 344
209 211 212 240 245 255 289 277 304 312 308 319 296 219 231 293 312 215 189 235 211 237 249 274 223 215 239 265 333 342 353 393 408 387 360 387 407 423
202 226 259 281 254 239 265 240 279 300 289 267 261 240 207 268 265 193 190 203 201 266 292 311 298 280 275 294 307 393 415 480 518 537 582 562 477 373
209 209 226 233 218 247 297 254 266 304 279 278 273 250 227 260 273 282 265 270 288 329 378 414 395 341 359 381 468 575 617 576 482 440 432 436 371 316
241 211 204 226 221 222 221 231 228 277 294 225 206 213 224 252 261 294 274 273 271 408 483 532 505 555 435 466 524 595 633 603 546 467 485 447 371 340
308 287 253 212 227 256 258 250 243 228 234 249 215 173 198 323 350 347 335 514 719 776 787 669 608 730 704 695 670 684 514 502 514 490 431 408 381 356
304 292 302 284 244 287 293 262 249 407 496 439 500 557 535 518 482 524 606 757 866 819 780 619 688 728 700 689 708 620 631 556 553 524 483 428 380 335
318 375 304 321 318 342 359 324 344 480 566 568 558 682 696 744 807 725 703 726 810 959 960 903 912 845 741 753 577 514 496 495 464 457 389 304 255 207
359 290 471 524 524 534 366 319 437 700 750 820 798 798 834 942 956 831 824 796 867 921 890 855 693 642 666 535 428 370 322 309 270 229 205 198 226 275
394 542 607 723 663 565 646 853 900 1011 991 934 926 922 921 862 905 887 837 805 769 681 709 467 428 386 357 334 280 249 235 196 168 184 219 266 285 277
678 873 886 901 829 822 909 912 936 923 959 1090 989 1024 670 714 575 554 481 438 393 336 303 298 245 194 172 162 159 158 157 171 183 227 222 224 234 231
297 383 388 401 417 431 504 566 566 464 404 380 357 382 381 353 310 283 280 247 256 217 209 199 188 163 139 135 147 159 175 182 209 197 182 167 149 149
204 303 416 454 438 505 621 640 668 625 584 499 471 390 358 329 321 258 226 216 211 183 171 158 151 135 124 154 142 174 170 157 152 140 131 129 128 131
335 398 390 484 534 436 406 360 446 399 348 294 273 231 206 190 165 154 132 135 140 151 150 152 150 162 175 156 149 160 144 131 117 114 123 138 142 121
277 282 264 269 272 296 273 257 215 190 152 142 132 125 103 95 104 106 111 108 124 148 163 158 151 149 174 162 100 64 131 118 120 118 102 111 140 122
177 164 162 160 166 165 150 123 120 124 123 120 122 117 113 109 106 118 138 145 142 131 130 125 125 129 140 123 137 143 82 90 91 99 99 93 106 43
172 171 155 145 135 122 116 111 112 118 111 108 103 103 116 118 134 135 132 146 140 138 162 147 112 96 69 64 97 90 92 54 58 71 78 109 112 150
145 144 141 134 122 115 113 110 124 136 134 131 129 122 120 122 121 121 120 128 125 110 105 80 75 69 58 64 74 76 71 78 71 26 -17 8 122 278
148 144 151 151 147 141 136 141 132 127 122 113 113 112 114 112 101 101 113 111 109 101 96 94 84 69 90 71 65 68 57 53 63 77 136 27 -3 29